Location: Belfast
(54.5830°N, 5.9330°W)
Time: 23:30:16
(UTC+01:00)

ISS - Pass Details

Date: 22 May 2018
Orbit: 402 x 407 km, 51.6° (Epoch: 24 May)

Event Time Altitude Azimuth Distance (km) Brightness Sun altitude
Rises 02:01:21 0° 269° (W) 2,321 -0.1 -14.6°
Reaches altitude 10° 02:03:29 10° 263° (W) 1,460 -1.2 -14.5°
Maximum altitude 02:06:38 45° 189° (S) 557 -3.6 -14.4°
Drops below altitude 10° 02:09:46 10° 115° (ESE) 1,457 -1.2 -14.3°
Sets 02:11:53 0° 109° (ESE) 2,315 -0.1 -14.3°
